Location: Knowlton
(51.2333°N, 1.2667°E)
Time: 04:49:51
(UTC+00:00)

Genesis I - Pass Details

Date: 18 April 2021
Orbit: 483 x 537 km, 64.5° (Epoch: 06 May)

Event Time Altitude Azimuth Distance (km) Brightness Sun altitude
Rises 21:54:30 0° 312° (NW) 2,674 8.1 -22.4°
Reaches altitude 10° 21:56:49 10° 303° (WNW) 1,787 6.8 -22.6°
Enters shadow 22:00:19 34° 243° (WSW) 901 4.4 -22.9°
